EW9826 Weather Reports


Display with metric or nautical units.
time (UTC)temp
F
wind
direction
speed
MPH
gust
MPH
rain 1hr
in
rain 24hr
in
rain mn
in
humidity
%
barometer
mb
20260505002507 52 356 5.0 10.0 0.00 0.01 0.00 85 1013.0
20260504235507 53 4 3.0 9.0 0.00 0.01 0.00 86 1013.2
20260504235007 53 17 4.0 9.0 0.00 0.01 0.00 86 1013.2
20260504233007 53 352 5.0 9.0 0.00 0.01 0.00 85 1013.2
20260504231506 53 4 5.0 10.0 0.00 0.01 0.00 85 1013.2
20260504231007 53 4 6.0 14.0 0.00 0.01 0.00 85 1013.3
20260504225007 53 356 7.0 12.0 0.00 0.01 0.00 85 1013.5
20260504224506 53 19 7.0 12.0 0.00 0.01 0.00 86 1013.4
20260504224007 53 349 8.0 12.0 0.00 0.01 0.00 86 1013.4
20260504223506 53 2 6.0 12.0 0.00 0.01 0.00 86 1013.4
20260504223007 54 21 6.0 12.0 0.00 0.01 0.00 86 1013.4
20260504220007 54 0 5.0 10.0 0.00 0.01 0.00 86 1013.6
20260504214006 55 19 4.0 9.0 0.00 0.01 0.01 86 1013.7
20260504213507 55 18 5.0 9.0 0.00 0.01 0.01 86 1013.7
20260504212506 55 349 4.0 8.0 0.00 0.01 0.01 86 1013.7
20260504212007 55 349 5.0 10.0 0.00 0.01 0.01 86 1013.7
20260504211506 55 13 3.0 8.0 0.00 0.01 0.01 87 1013.7
20260504210006 55 356 5.0 7.0 0.00 0.01 0.01 87 1013.7
20260504205506 55 9 5.0 8.0 0.00 0.01 0.01 87 1013.7
20260504205007 55 355 4.0 7.0 0.00 0.01 0.01 87 1013.7
20260504204506 55 5 4.0 7.0 0.00 0.01 0.01 86 1013.7
20260504202006 55 3 3.0 6.0 0.00 0.01 0.01 85 1013.7
20260504201506 55 3 5.0 10.0 0.00 0.01 0.01 85 1013.7
20260504193506 56 25 5.0 10.0 0.00 0.01 0.01 83 1013.2
20260504193006 57 40 5.0 8.0 0.00 0.01 0.01 83 1013.2
20260504192006 57 19 3.0 5.0 0.00 0.01 0.01 83 1013.2
20260504191506 57 19 3.0 8.0 0.00 0.01 0.01 82 1013.1
20260504190006 58 20 3.0 6.0 0.00 0.01 0.01 81 1013.0
20260504185506 59 3 4.0 8.0 0.00 0.01 0.01 83 1013.0
20260504185006 59 3 3.0 6.0 0.00 0.01 0.01 81 1013.0
20260504184506 59 3 3.0 7.0 0.00 0.01 0.01 80 1012.9
20260504183006 59 343 5.0 7.0 0.00 0.01 0.01 81 1012.9
20260504181506 59 8 5.0 9.0 0.00 0.01 0.01 83 1012.8
20260504181006 59 329 2.0 7.0 0.00 0.01 0.01 83 1012.8
20260504180006 59 324 3.0 8.0 0.00 0.01 0.01 83 1012.8
20260504175506 59 331 5.0 7.0 0.00 0.01 0.01 82 1012.9
20260504175006 60 331 3.0 8.0 0.00 0.01 0.01 82 1012.8
20260504174506 60 342 2.0 8.0 0.00 0.01 0.01 82 1012.8
20260504174006 60 342 3.0 8.0 0.00 0.01 0.01 82 1012.8
20260504173506 60 316 3.0 7.0 0.00 0.01 0.01 81 1012.8
20260504173006 60 343 5.0 7.0 0.00 0.01 0.01 81 1012.9
20260504172505 60 347 3.0 6.0 0.00 0.01 0.01 82 1012.8
20260504172006 60 351 3.0 8.0 0.00 0.01 0.01 82 1012.9
20260504171506 60 0 2.0 7.0 0.00 0.01 0.01 82 1012.9
20260504171006 60 342 3.0 8.0 0.00 0.01 0.01 82 1012.9
20260504081508 59 214 0.0 2.0 0.00 0.10 0.01 90 1013.2
20260504081008 59 214 2.0 3.0 0.00 0.10 0.01 90 1013.2
20260504050008 53 215 1.0 2.0 0.00 0.11 0.00 96 1011.7
20260504043508 53 215 1.0 2.0 0.00 0.11 0.00 96 1011.4
20260504043008 53 215 1.0 3.0 0.00 0.11 0.00 96 1011.4
20260504042508 53 215 1.0 3.0 0.00 0.11 0.00 96 1011.4
20260504042008 53 215 3.0 5.0 0.00 0.11 0.00 96 1011.5
20260504041507 54 215 2.0 3.0 0.00 0.11 0.00 96 1011.4
20260504041008 54 215 2.0 3.0 0.00 0.11 0.00 96 1011.5
20260504040008 54 215 0.0 1.0 0.00 0.11 0.00 96 1011.5
20260504035508 54 215 1.0 2.0 0.00 0.11 0.00 96 1011.5
20260504035008 54 215 0.0 2.0 0.00 0.11 0.00 96 1011.5
20260504032007 53 215 0.0 0.0 0.00 0.11 0.00 96 1011.6
20260504031508 53 215 1.0 2.0 0.00 0.11 0.00 96 1011.7
20260504031008 53 215 0.0 2.0 0.00 0.11 0.00 96 1011.7
20260504025008 53 215 0.0 0.0 0.00 0.14 0.00 95 1011.7
20260504024507 53 215 0.0 0.0 0.00 0.15 0.00 95 1011.6
20260504024007 53 215 0.0 0.0 0.00 0.15 0.00 95 1011.6
20260504023507 53 215 0.0 0.0 0.00 0.16 0.00 95 1011.4
20260504023007 53 215 0.0 0.0 0.00 0.16 0.00 95 1011.3
20260504015507 54 215 0.0 0.0 0.00 0.16 0.00 95 1011.2
20260504015007 54 215 0.0 0.0 0.00 0.17 0.00 95 1011.2
20260504013507 54 215 0.0 0.0 0.00 0.18 0.00 95 1011.4
20260504013007 54 215 0.0 0.0 0.00 0.18 0.00 95 1011.4
20260504012507 54 215 0.0 0.0 0.00 0.18 0.00 95 1011.5
20260504012008 54 215 0.0 0.0 0.00 0.18 0.00 95 1011.5
20260504011507 54 215 0.0 0.0 0.00 0.18 0.00 94 1011.4
20260504011007 54 215 0.0 0.0 0.00 0.18 0.00 94 1011.5
20260504010007 54 215 0.0 0.0 0.00 0.18 0.00 94 1011.4
20260504003007 55 215 0.0 0.0 0.00 0.18 0.00 94 1011.4